Regional Weather Roundup
Issued by NWS

Home | Current Version | Previous Version | Text Only | Print | Product List | Glossary On
Versions: 1 2 3 4 5 6 7 8 9 10 11 12 13 14 15 16 17 18 19 20 21 22 23 24 25 26 27 28 29 30 31 32 33 34 35 36 37 38 39 40 41 42 43 44 45 46 47 48 49 50
000
ASUS46 KPQR 291410
RWROR

OREGON REGIONAL WEATHER ROUNDUP
NATIONAL WEATHER SERVICE PORTLAND OR
700 AM PDT THU JUN 29 2017

NOTE: "FAIR" INDICATES FEW OR NO CLOUDS BELOW 12,000 FEET WITH
NO SIGNIFICANT WEATHER AND/OR OBSTRUCTIONS TO VISIBILITY.

ORZ001>013-291500-
NORTHWEST OREGON


CITY           SKY/WX    TMP DP  RH WIND       PRES   REMARKS
ASTORIA        CLOUDY    57  48  72 NE3       30.14R
NEWPORT        MOSUNNY   50  50 100 E3        30.17R
PORTLAND       PTSUNNY   58  51  78 N6        30.14R
VANCOUVER WA   CLOUDY    58  52  80 NW8       30.13R
SCAPPOOSE      CLOUDY    57  50  77 N3        30.14R
HILLSBORO      CLOUDY    54  49  83 NW3       30.14R
AURORA         PTSUNNY   58  49  72 CALM      30.14R
MCMINNVILLE    CLOUDY    54  51  90 W3        30.15R
SALEM          SUNNY     55  50  83 N6        30.13R
CORVALLIS      SUNNY     52  46  82 CALM      30.14R
EUGENE         MOSUNNY   49  48  97 CALM      30.13R
$$

ORZ021-028-291500-
SOUTHWEST OREGON


CITY           SKY/WX    TMP DP  RH WIND       PRES   REMARKS
NORTH BEND     SUNNY     54  52  94 NE3       30.12R
BROOKINGS      LGT RAIN  52  51  97 CALM      30.03S VSB 1/2
ROSEBURG       MOSUNNY   54  50  86 CALM      30.10R
SEXTON SUMMIT  SUNNY     54  40  59 SE3       30.10R
GRANTS PASS    FAIR      54  46  76 CALM      30.11R
MEDFORD        SUNNY     54  44  69 E3        30.08R
$$

ORZ014>016-041-291500-
COLUMBIA GORGE


CITY           SKY/WX    TMP DP  RH WIND       PRES   REMARKS
TROUTDALE      PTSUNNY   57  52  83 E3        30.14R
HOOD RIVER     SUNNY     54  46  76 CALM      30.11R
THE DALLES     SUNNY     61  50  67 CALM      30.08R
$$

ORZ029>031-041-044-049-050-061>064-502-503-505>511-291500-
EASTERN OREGON


CITY           SKY/WX    TMP DP  RH WIND       PRES   REMARKS
MADRAS         SUNNY     50  39  66 SE3       30.14R
REDMOND        SUNNY     51  33  50 CALM      30.12R
BEND           SUNNY     52  39  62 SW8       30.14R
PRINEVILLE     SUNNY     50  34  53 CALM      30.14R
KLAMATH FALLS  SUNNY     48  40  73 CALM      30.11R
LAKEVIEW       SUNNY     51  36  56 NW9       30.14R
HERMISTON      SUNNY     62  47  57 W6        30.05R
PENDLETON      SUNNY     57  44  62 SE6       30.07R
JOHN DAY       SUNNY     51  35  55 CALM      30.14R
MEACHAM        SUNNY     48  37  65 CALM      30.11R
LA GRANDE      SUNNY     61  37  41 NW13      30.08R
BAKER CITY     NOT AVBL
BURNS          SUNNY     50  31  48 W7        30.12R
ROME             N/A     61  26  26 NE7       30.08R
ONTARIO        SUNNY     61  38  42 SW8       30.02R
$$



USA.gov is the U.S. government's official web portal to all federal, state and local government web resources and services.